EW2318 Weather Reports


time (UTC)temp
C
wind
direction
speed
KPH
gust
KPH
rain 1hr
cm
rain 24hr
cm
rain mn
cm
humidity
%
barometer
mb
20260506224042 14 134 1.6 14.5 0.00 0.00 0.00 75 1007.8
20260506223551 14 188 4.8 14.5 0.00 0.00 0.00 75 1007.8
20260506223052 14 184 4.8 14.5 0.00 0.00 0.00 75 1007.8
20260506222543 14 189 4.8 14.5 0.00 0.00 0.00 75 1007.8
20260506222046 14 223 4.8 14.5 0.00 0.00 0.00 75 1007.8
20260506221610 14 188 3.2 14.5 0.00 0.00 0.00 74 1007.8
20260506221043 14 0 3.2 17.7 0.00 0.00 0.00 74 1007.8
20260506220546 14 240 4.8 17.7 0.00 0.00 0.00 74 1007.8
20260506220110 14 62 3.2 11.3 0.00 0.00 0.00 74 1007.7
20260506215543 14 183 1.6 11.3 0.00 0.00 0.00 73 1007.8
20260506215043 14 228 3.2 17.7 0.00 0.00 0.00 73 1007.8
20260506214551 15 185 4.8 17.7 0.00 0.00 0.00 73 1007.7
20260506214044 15 68 4.8 17.7 0.00 0.00 0.00 72 1007.7
20260506213543 15 145 6.4 17.7 0.00 0.00 0.00 72 1007.6
20260506213105 15 265 4.8 17.7 0.00 0.00 0.00 72 1007.6
20260506212544 15 149 6.4 16.1 0.00 0.00 0.00 72 1007.7
20260506212044 15 168 4.8 11.3 0.00 0.00 0.00 71 1007.8
20260506211553 15 199 3.2 11.3 0.00 0.00 0.00 71 1007.8
20260506211044 15 173 3.2 14.5 0.00 0.00 0.00 71 1007.6
20260506210544 15 202 4.8 14.5 0.00 0.00 0.00 70 1007.7
20260506210104 15 207 3.2 12.9 0.00 0.00 0.00 70 1007.6
20260506205545 15 300 4.8 14.5 0.00 0.00 0.00 70 1007.6
20260506205043 15 113 3.2 14.5 0.00 0.00 0.00 70 1007.6
20260506204605 15 142 3.2 17.7 0.00 0.00 0.00 69 1007.5
20260506204043 15 104 4.8 17.7 0.00 0.00 0.00 69 1007.6
20260506203547 15 142 4.8 20.9 0.00 0.00 0.00 69 1007.4
20260506203053 15 211 4.8 20.9 0.00 0.00 0.00 68 1007.5
20260506202543 15 150 6.4 19.3 0.00 0.00 0.00 68 1007.4
20260506202044 15 168 3.2 19.3 0.00 0.00 0.00 68 1007.4
20260506201551 15 153 8.0 19.3 0.00 0.00 0.00 68 1007.5
20260506201044 15 155 8.0 19.3 0.00 0.00 0.00 67 1007.4
20260506200545 15 180 4.8 20.9 0.00 0.00 0.00 67 1007.5
20260506200052 15 202 8.0 20.9 0.00 0.00 0.00 67 1007.5
20260506195548 16 171 4.8 22.5 0.00 0.00 0.00 67 1007.5
20260506195044 16 157 6.4 22.5 0.00 0.00 0.00 66 1007.4
20260506194549 16 156 4.8 17.7 0.00 0.00 0.00 67 1007.4
20260506194046 16 190 3.2 17.7 0.00 0.00 0.00 66 1007.4
20260506193542 16 170 6.4 17.7 0.00 0.00 0.00 66 1007.5
20260506193055 16 131 4.8 14.5 0.00 0.00 0.00 66 1007.3
20260506192544 16 159 4.8 16.1 0.00 0.00 0.00 66 1007.3
20260506192043 16 150 4.8 16.1 0.00 0.00 0.00 66 1007.3
20260506191553 16 145 6.4 16.1 0.00 0.00 0.00 66 1007.4
20260506191047 16 154 3.2 12.9 0.00 0.00 0.00 66 1007.4
20260506190547 16 144 3.2 16.1 0.00 0.00 0.00 66 1007.3
20260506190055 16 136 3.2 16.1 0.00 0.00 0.00 65 1007.4
20260506185547 16 192 3.2 16.1 0.00 0.00 0.00 65 1007.3
20260506185047 16 194 3.2 11.3 0.00 0.00 0.00 64 1007.2
20260506184622 16 132 3.2 9.7 0.00 0.00 0.00 64 1007.2
20260506184045 16 137 3.2 12.9 0.00 0.00 0.00 63 1007.2
20260506183546 16 165 3.2 12.9 0.00 0.00 0.00 63 1007.0
20260506183053 16 318 3.2 12.9 0.00 0.00 0.00 62 1006.9
20260506182543 17 149 3.2 14.5 0.00 0.00 0.00 62 1007.0
20260506182043 17 159 6.4 19.3 0.00 0.00 0.00 61 1006.9
20260506181554 17 148 4.8 19.3 0.00 0.00 0.00 60 1006.9
20260506181043 17 163 4.8 19.3 0.00 0.00 0.00 60 1006.7
20260506180544 17 210 6.4 19.3 0.00 0.00 0.00 60 1006.7
20260506180056 17 94 4.8 19.3 0.00 0.00 0.00 60 1006.7
20260506175546 17 177 4.8 19.3 0.00 0.00 0.00 59 1006.7
20260506175050 17 148 6.4 19.3 0.00 0.00 0.00 59 1006.7
20260506174552 17 133 3.2 16.1 0.00 0.00 0.00 59 1006.6
20260506174047 17 178 4.8 16.1 0.00 0.00 0.00 59 1006.6
20260506173547 17 178 4.8 19.3 0.00 0.00 0.00 59 1006.7
20260506173052 17 194 6.4 19.3 0.00 0.00 0.00 59 1006.7
20260506172546 18 331 4.8 20.9 0.00 0.00 0.00 59 1006.6
20260506172048 18 160 4.8 20.9 0.00 0.00 0.00 59 1006.6
20260506171559 18 124 3.2 16.1 0.00 0.00 0.00 59 1006.7
20260506171043 18 152 8.0 16.1 0.00 0.00 0.00 59 1006.7
20260506170545 18 136 6.4 22.5 0.00 0.00 0.00 59 1006.7
20260506170057 18 186 9.7 22.5 0.00 0.00 0.00 59 1006.7
20260506165543 18 144 6.4 19.3 0.00 0.00 0.00 59 1006.8
20260506165043 18 142 6.4 27.4 0.00 0.00 0.00 60 1006.7
20260506164555 18 158 9.7 27.4 0.00 0.00 0.00 60 1006.7
20260506164046 18 207 8.0 22.5 0.00 0.00 0.00 60 1006.9
20260506163547 18 176 9.7 20.9 0.00 0.00 0.00 60 1006.8
20260506163057 18 170 9.7 22.5 0.00 0.00 0.00 61 1007.0
20260506162551 18 151 11.3 25.7 0.00 0.00 0.00 61 1007.2
20260506162048 18 165 6.4 25.7 0.00 0.00 0.00 61 1007.3
20260506161553 18 215 8.0 25.7 0.00 0.00 0.00 62 1007.3
20260506161045 18 159 6.4 20.9 0.00 0.00 0.00 63 1007.3
20260506160549 18 196 9.7 25.7 0.00 0.00 0.00 62 1007.4
20260506160107 18 126 12.9 25.7 0.00 0.00 0.00 62 1007.5
20260506155545 18 169 6.4 16.1 0.00 0.00 0.00 63 1007.4
20260506155043 18 130 4.8 19.3 0.00 0.00 0.00 63 1007.6
20260506154554 18 138 8.0 19.3 0.00 0.00 0.00 62 1007.8
20260506154043 18 177 6.4 20.9 0.00 0.00 0.00 62 1007.7
20260506153546 18 154 4.8 20.9 0.00 0.00 0.00 63 1007.8
20260506153059 18 136 8.0 20.9 0.00 0.00 0.00 61 1007.7
20260506152547 18 138 3.2 16.1 0.00 0.00 0.00 62 1007.8
20260506152047 18 121 6.4 16.1 0.00 0.00 0.00 61 1007.8
20260506151557 18 127 4.8 17.7 0.00 0.00 0.00 62 1007.8
20260506151047 18 145 4.8 20.9 0.00 0.00 0.00 62 1008.0
20260506150544 18 152 8.0 20.9 0.00 0.00 0.00 61 1008.0
20260506150055 18 145 9.7 20.9 0.00 0.00 0.00 60 1008.0
20260506145545 18 150 8.0 16.1 0.00 0.00 0.00 60 1008.0
20260506145044 18 158 6.4 16.1 0.00 0.00 0.00 60 1008.0
20260506144600 18 257 4.8 16.1 0.00 0.00 0.00 60 1008.0
20260506144043 18 168 6.4 12.9 0.00 0.00 0.00 59 1008.2
20260506143544 19 196 4.8 16.1 0.00 0.00 0.00 59 1008.2
20260506143057 19 188 4.8 17.7 0.00 0.00 0.00 58 1008.2
20260506142545 19 115 8.0 17.7 0.00 0.00 0.00 57 1008.1
20260506142047 19 169 3.2 22.5 0.00 0.00 0.00 57 1008.2
20260506141550 19 118 4.8 22.5 0.00 0.00 0.00 56 1008.2
20260506141045 19 115 4.8 17.7 0.00 0.00 0.00 55 1008.2
20260506140545 20 182 3.2 17.7 0.00 0.00 0.00 55 1008.3
20260506140054 20 145 6.4 17.7 0.00 0.00 0.00 53 1008.4
20260506135544 20 152 3.2 11.3 0.00 0.00 0.00 55 1008.4
20260506135045 20 190 1.6 11.3 0.00 0.00 0.00 59 1008.5
20260506134549 19 155 3.2 14.5 0.00 0.00 0.00 58 1008.6
20260506134045 19 234 4.8 14.5 0.00 0.00 0.00 56 1008.6
20260506133544 19 164 3.2 11.3 0.00 0.00 0.00 56 1008.6
20260506133048 20 189 3.2 17.7 0.00 0.00 0.00 56 1008.7
20260506132547 20 179 3.2 25.7 0.00 0.00 0.00 56 1008.6
20260506132044 20 136 4.8 25.7 0.00 0.00 0.00 55 1008.7
20260506131607 20 143 9.7 25.7 0.00 0.00 0.00 55 1008.6
20260506131044 20 179 4.8 24.1 0.00 0.00 0.00 57 1008.7
20260506130544 20 159 8.0 24.1 0.00 0.00 0.00 55 1008.8
20260506130055 20 138 8.0 20.9 0.00 0.00 0.00 57 1008.8
20260506125544 20 190 4.8 20.9 0.00 0.00 0.00 58 1008.8
20260506125044 19 100 8.0 16.1 0.00 0.00 0.00 57 1008.8
20260506124553 19 127 6.4 17.7 0.00 0.00 0.00 58 1008.7
20260506124045 19 157 6.4 17.7 0.00 0.00 0.00 58 1008.7
20260506123545 19 157 4.8 16.1 0.00 0.00 0.00 57 1008.8
20260506123055 19 157 3.2 12.9 0.00 0.00 0.00 57 1008.8
20260506122545 19 221 4.8 12.9 0.00 0.00 0.00 57 1008.8
20260506122045 19 167 3.2 12.9 0.00 0.00 0.00 57 1008.9
20260506121558 20 140 3.2 12.9 0.00 0.00 0.00 56 1008.9
20260506121047 20 299 4.8 12.9 0.00 0.00 0.00 59 1009.0
20260506120545 19 120 1.6 9.7 0.00 0.00 0.00 58 1008.9
20260506120055 19 0 3.2 11.3 0.00 0.00 0.00 57 1008.9
20260506115547 19 223 1.6 11.3 0.00 0.00 0.00 58 1009.0
20260506115044 19 234 1.6 11.3 0.00 0.00 0.00 59 1009.0
20260506114556 19 188 1.6 6.4 0.00 0.00 0.00 58 1009.0
20260506114044 19 189 1.6 12.9 0.00 0.00 0.00 58 1009.0
20260506113544 19 81 3.2 19.3 0.00 0.00 0.00 59 1009.1
20260506113051 19 240 4.8 19.3 0.00 0.00 0.00 57 1009.0
20260506112547 19 155 6.4 19.3 0.00 0.00 0.00 57 1009.1
20260506112044 19 198 8.0 19.3 0.00 0.00 0.00 58 1009.2
20260506111555 19 201 3.2 19.3 0.00 0.00 0.00 60 1009.2
20260506111045 18 105 8.0 19.3 0.00 0.00 0.00 58 1009.1
20260506110545 18 100 3.2 12.9 0.00 0.00 0.00 62 1009.1
20260506110054 17 153 3.2 11.3 0.00 0.00 0.00 62 1009.3
20260506105544 17 0 1.6 12.9 0.00 0.00 0.00 63 1009.3
20260506105047 17 268 6.4 12.9 0.00 0.00 0.00 61 1009.4
20260506104556 17 192 4.8 12.9 0.00 0.00 0.00 63 1009.4
20260506104043 17 0 3.2 12.9 0.00 0.00 0.00 64 1009.5
20260506103544 17 0 3.2 16.1 0.00 0.00 0.00 63 1009.4
20260506103053 18 60 6.4 20.9 0.00 0.00 0.00 62 1009.4
20260506102544 18 271 3.2 20.9 0.00 0.00 0.00 61 1009.4
20260506102044 18 269 4.8 16.1 0.00 0.00 0.00 61 1009.4
20260506101555 18 138 6.4 16.1 0.00 0.00 0.00 61 1009.6
20260506101044 18 191 4.8 16.1 0.00 0.00 0.00 64 1009.5
20260506100543 18 130 4.8 16.1 0.00 0.00 0.00 65 1009.7
20260506100109 18 146 8.0 20.9 0.00 0.00 0.00 65 1009.6
20260506095544 17 238 6.4 20.9 0.00 0.00 0.00 66 1009.7
20260506095044 17 143 3.2 16.1 0.00 0.00 0.00 67 1009.6
20260506094552 17 303 4.8 16.1 0.00 0.00 0.00 65 1009.6
20260506094043 17 96 3.2 12.9 0.00 0.00 0.00 69 1009.5
20260506093543 16 199 3.2 16.1 0.00 0.00 0.00 69 1009.7
20260506093057 16 214 3.2 17.7 0.00 0.00 0.00 71 1009.7
20260506092544 16 195 6.4 17.7 0.00 0.00 0.00 71 1009.7
20260506092047 15 143 3.2 24.1 0.00 0.00 0.00 74 1009.7
20260506091558 15 305 4.8 24.1 0.00 0.00 0.00 71 1009.6
20260506091043 15 259 8.0 17.7 0.00 0.00 0.00 72 1009.6
20260506090543 15 227 8.0 17.7 0.00 0.00 0.00 72 1009.6
20260506090054 15 259 4.8 20.9 0.00 0.00 0.00 74 1009.7
20260506085544 15 213 6.4 20.9 0.00 0.00 0.00 75 1009.6
20260506085044 15 288 9.7 19.3 0.00 0.00 0.00 76 1009.6
20260506084550 14 242 8.0 19.3 0.00 0.00 0.00 76 1009.5
20260506084044 14 275 11.3 19.3 0.00 0.00 0.00 76 1009.5
20260506083547 15 238 9.7 19.3 0.00 0.00 0.00 76 1009.6
20260506083052 15 246 8.0 19.3 0.00 0.00 0.00 77 1009.4
20260506082546 14 269 8.0 19.3 0.00 0.00 0.00 78 1009.5
20260506082044 14 254 6.4 17.7 0.00 0.00 0.00 80 1009.4
20260506081551 13 223 4.8 12.9 0.00 0.00 0.00 83 1009.4
20260506081044 13 240 3.2 17.7 0.00 0.00 0.00 83 1009.5
20260506080544 13 234 6.4 17.7 0.00 0.00 0.00 83 1009.4
20260506073055 13 275 8.0 16.1 0.00 0.00 0.00 84 1009.1
20260506072544 13 321 6.4 20.9 0.00 0.00 0.00 84 1009.1
20260506072044 13 271 11.3 20.9 0.00 0.00 0.00 84 1009.2
20260506071558 13 222 9.7 20.9 0.00 0.00 0.00 84 1009.1
20260506071048 12 229 9.7 20.9 0.00 0.00 0.00 85 1009.1
20260506070548 12 264 8.0 16.1 0.00 0.00 0.00 85 1009.1
20260506062044 11 200 6.4 14.5 0.00 0.00 0.00 87 1008.9
20260506061551 11 296 6.4 16.1 0.00 0.00 0.00 86 1008.8
20260506061044 11 213 4.8 17.7 0.00 0.00 0.00 86 1008.7
20260506060544 11 329 4.8 17.7 0.00 0.00 0.00 85 1008.5
20260506051043 10 330 3.2 14.5 0.00 0.00 0.00 87 1008.6
20260506050545 10 343 3.2 14.5 0.00 0.00 0.00 86 1008.5
20260506045044 10 240 4.8 12.9 0.00 0.00 0.00 88 1008.1
20260506044550 10 271 3.2 9.7 0.00 0.00 0.00 88 1008.1
20260506044043 10 0 3.2 8.0 0.00 0.00 0.00 89 1008.0
20260506043544 10 287 1.6 9.7 0.00 0.00 0.00 89 1007.9
20260506043049 9 288 3.2 11.3 0.00 0.00 0.00 89 1007.9
20260506042543 9 272 1.6 11.3 0.00 0.00 0.00 89 1007.8
20260506042047 9 284 3.2 12.9 0.00 0.00 0.00 89 1007.8
20260506041559 9 240 4.8 12.9 0.00 0.00 0.00 89 1007.9
20260506041044 9 294 6.4 12.9 0.00 0.00 0.00 89 1007.8
20260506040543 9 271 4.8 9.7 0.00 0.00 0.00 89 1007.9
20260506040111 9 273 3.2 12.9 0.00 0.00 0.00 88 1007.6
20260506035544 9 250 3.2 12.9 0.00 0.00 0.00 88 1007.5
20260506035044 9 273 4.8 9.7 0.00 0.00 0.00 88 1007.5
20260506034551 9 236 3.2 9.7 0.00 0.00 0.00 87 1007.4
20260506034042 9 265 4.8 9.7 0.00 0.00 0.00 87 1007.6
20260506033544 10 250 3.2 9.7 0.00 0.00 0.00 87 1007.4
20260506033055 10 268 3.2 9.7 0.00 0.00 0.00 86 1007.4
20260506032543 10 269 3.2 9.7 0.00 0.00 0.00 86 1007.4
20260506032043 10 328 3.2 9.7 0.00 0.00 0.00 86 1007.4
20260506031552 10 285 1.6 11.3 0.00 0.00 0.00 86 1007.2
20260506031046 10 311 3.2 11.3 0.00 0.00 0.00 85 1007.2
20260506030545 10 262 3.2 11.3 0.00 0.00 0.00 85 1007.2
20260506025544 10 314 4.8 14.5 0.00 0.00 0.00 84 1007.2
20260506025043 10 259 4.8 14.5 0.00 0.00 0.00 84 1007.3
20260506024555 10 271 4.8 12.9 0.00 0.00 0.00 84 1007.2
20260506024043 10 229 4.8 11.3 0.00 0.00 0.00 83 1007.3
20260506023544 10 245 4.8 11.3 0.00 0.00 0.00 83 1007.4
20260506023047 10 245 4.8 12.9 0.00 0.00 0.00 83 1007.3
20260506022543 10 253 4.8 12.9 0.00 0.00 0.00 83 1007.3
20260506022044 10 245 4.8 12.9 0.00 0.00 0.00 82 1007.3
20260506021549 10 289 3.2 11.3 0.00 0.00 0.00 82 1007.3
20260506021042 10 283 3.2 11.3 0.00 0.00 0.00 82 1007.3
20260506020543 10 304 3.2 11.3 0.00 0.00 0.00 82 1007.4
20260506020051 10 254 4.8 9.7 0.00 0.00 0.00 81 1007.3
20260506015545 10 248 3.2 11.3 0.00 0.00 0.00 81 1007.4
20260506015046 10 248 3.2 11.3 0.00 0.00 0.00 81 1007.3
20260506014558 10 250 4.8 11.3 0.00 0.00 0.00 81 1007.3
20260506014043 10 246 4.8 9.7 0.00 0.00 0.00 80 1007.4
20260506013543 10 241 4.8 9.7 0.00 0.00 0.00 80 1007.4
20260506013049 11 271 4.8 9.7 0.00 0.00 0.00 79 1007.4
20260506012543 11 290 3.2 16.1 0.00 0.00 0.00 78 1007.4
20260506012044 11 287 4.8 16.1 0.00 0.00 0.00 78 1007.5
20260506011553 11 242 3.2 9.7 0.00 0.00 0.00 77 1007.5
20260506011045 11 244 3.2 9.7 0.00 0.00 0.00 77 1007.5
20260506010543 11 256 3.2 9.7 0.00 0.00 0.00 76 1007.6
20260506010101 11 293 1.6 9.7 0.00 0.00 0.00 76 1007.5
20260506005543 11 286 1.6 11.3 0.00 0.00 0.00 76 1007.5
20260506005043 11 42 1.6 11.3 0.00 0.00 0.00 76 1007.6
20260506004553 11 267 1.6 9.7 0.00 0.00 0.00 75 1007.6
20260506004043 12 276 1.6 8.0 0.00 0.00 0.00 75 1007.6
20260506003543 12 217 1.6 11.3 0.00 0.00 0.00 75 1007.6
20260506003057 12 0 1.6 11.3 0.00 0.00 0.00 75 1007.6
20260506002543 12 197 3.2 12.9 0.00 0.00 0.00 75 1007.6
20260506002043 12 255 4.8 12.9 0.00 0.00 0.00 75 1007.8
20260506001556 12 260 3.2 9.7 0.00 0.00 0.00 75 1007.7
20260506001045 12 248 1.6 6.4 0.00 0.00 0.00 74 1007.6
20260506000544 12 217 1.6 6.4 0.00 0.00 0.00 74 1007.5
20260506000100 12 236 1.6 6.4 0.00 0.00 0.00 74 1007.6
20260505235544 12 261 0.0 6.4 0.00 0.00 0.00 74 1007.6
20260505235044 12 193 3.2 14.5 0.00 0.00 0.00 74 1007.6
20260505234549 12 264 1.6 14.5 0.00 0.00 0.00 73 1007.6
20260505234044 12 202 1.6 14.5 0.00 0.00 0.00 73 1007.7
20260505233544 12 201 1.6 14.5 0.00 0.00 0.00 73 1007.8
20260505233059 12 188 3.2 14.5 0.00 0.00 0.00 72 1007.8
20260505232543 12 229 1.6 11.3 0.00 0.00 0.00 72 1007.8
20260505232043 12 101 3.2 12.9 0.00 0.00 0.00 72 1007.8
20260505231553 12 155 1.6 12.9 0.00 0.00 0.00 72 1007.9
20260505231043 12 190 1.6 11.3 0.00 0.00 0.00 71 1007.9
20260505230543 12 0 1.6 11.3 0.00 0.00 0.00 71 1008.0
20260505230052 12 271 1.6 9.7 0.00 0.00 0.00 71 1008.0
20260505225547 12 284 1.6 9.7 0.00 0.00 0.00 70 1008.0
20260505225043 12 236 1.6 12.9 0.00 0.00 0.00 70 1008.1
20260505224556 12 0 3.2 12.9 0.00 0.00 0.00 69 1008.0